Regional Weather Roundup
Issued by NWS Kansas City/Pleasant Hill, MO

Home | Current Version | Previous Version | Text Only | Print | Product List | Glossary On
Versions: 1 2 3 4 5 6 7 8 9 10 11 12 13 14 15 16 17 18 19 20 21 22 23 24 25 26 27 28
000
ASUS43 KEAX 250910
RWREAX

WEATHER ROUNDUP FOR EASTERN KANSAS AND NORTHWEST MISSOURI
NATIONAL WEATHER SERVICE KANSAS CITY/PLEASANT HILL MO
400 AM CDT SUN JUN 25 2017

KSZ040-057-103>105-MOZ028-029-037-043-251000-
...KANSAS CITY METROPOLITAN AREA...

CITY           SKY/WX    TMP DP  RH WIND       PRES   REMARKS
K.C. INTL      PTCLDY    61  50  67 W8        30.22R
K.C. DOWNTOWN  CLEAR     66  52  60 CALM      30.21R
LEES SUMMIT    PTCLDY    65  51  60 W7        30.23R
OLATHE - IXD   MOCLDY    65  51  60 W7        30.24R
OLATHE - OJC   PTCLDY    65  51  60 W6        30.23S
LAWRENCE       PTCLDY    62  53  72 W3        30.24R

$$

MOZ001>008-011>017-020>025-030>033-038>040-044>046-053-054-251000-
...NORTHERN AND CENTRAL MISSOURI...

CITY           SKY/WX    TMP DP  RH WIND       PRES   REMARKS
ST. JOSEPH     CLEAR     55  50  83 CALM      30.22R
MOSBY          SUNNY     55  54  94 CALM      30.21S
WARRENSBURG    CLOUDY    61  50  67 SW6       30.21S
WHITEMAN AFB   CLOUDY    64  50  60 SW7       30.20R
CLINTON        CLOUDY    63  54  72 SW6       30.23S
SEDALIA        MOCLDY    61  54  77 SW9       30.22R
WARSAW         NOT AVBL
CHILLICOTHE      N/A     55  51  86 CALM      30.21R
KIRKSVILLE     PTCLDY    51  49  92 NW3       30.19R

$$

MOZ041-047>049-056>058-063>065-088>090-097-251000-
...EASTERN AND SOUTHERN MISSOURI...

CITY           SKY/WX    TMP DP  RH WIND       PRES   REMARKS
ST. LOUIS INTL PTCLDY    65  47  52 SW9       30.17R
SPIRIT OF STL  PTCLDY    55  51  86 W5        30.17R
COLUMBIA       PTCLDY    60  49  66 SW6       30.19S
JEFFERSON CITY PTCLDY    61  51  70 CALM      30.19S
ROLLA          PTCLDY    55  50  83 SW10      30.20S
OSAGE BEACH    CLEAR     53  51  93 CALM      30.23S
SPRINGFIELD    PTCLDY    61  54  77 S3        30.25R
BRANSON        CLOUDY    61  54  77 CALM      30.27R
JOPLIN         CLOUDY    63  60  90 S3        30.26R
WEST PLAINS    PTCLDY    58  50  75 CALM      30.25R

$$

IAZ060-094-KSZ022-034>040-054-083-096-NEZ052-066-093-251000-
...KANSAS...SOUTHEAST NEBRASKA AND IOWA...

CITY           SKY/WX    TMP DP  RH WIND       PRES   REMARKS
TOPEKA         CLOUDY    66  52  60 W5        30.24R
MANHATTAN      CLOUDY    62  55  77 SW5       30.26S
EMPORIA        LGT RAIN  62  56  80 SW6       30.29R
CHANUTE        MOCLDY    62  54  74 W3        30.26R
WICHITA        CLOUDY    68  55  63 SE3       30.27R
OMAHA          CLEAR     55  44  66 N3        30.25R
LINCOLN        CLEAR     53  43  68 N5        30.28R
FALLS CITY     CLEAR     54  48  80 NW6       30.22R
LAMONI         PTCLDY    55  43  63 NW7       30.20S
DES MOINES     PTCLDY    54  45  71 NW7       30.18R

$$





USA.gov is the U.S. government's official web portal to all federal, state and local government web resources and services.